Погода в Атибая

Бразилия     23°07′02″S   46°32′59″W
темп.,
°C
ветер,
м/с
пор.,
м/с
влажн.,
%
обл.,
%
осадки,
мм/ч
давл.,
гПа
погр.,
м
20 июня, вс
вс2000:00+16ссз116690 0.0 101811
03:00+15зюз116689 0.0 101724
06:00+13с228059 0.0 101815
09:00+18сз496379 0.0 1019844
12:00+21зсз6115753 0.1 10181291
15:00+19зсз4106795 0.2 10161495
18:00+16зюз1183100 0.3 101811
21:00+16ююв128292 0.4 102063
21 июня, пн
пн2100:00+14юв358796 0.0 1021498
03:00+13юв2688100 0.0 1021303
06:00+10вюв2397100 0.0 102172
09:00+15вюв237214 0.0 1022372
12:00+21юв2247100 0.0 1019879
15:00+23ю124368 0.0 10171196
18:00+18ююв2263100 0.0 101943
21:00+15вюв2375100 0.0 102092
22 июня, вт
вт2200:00+13юв1293100 0.2 102054
03:00+14в1194100 0.6 102035
06:00+14ююв119279 0.2 102014
09:00+17в118475 0.9 1022219
12:00+21юз2467100 0.6 1020670
15:00+21ююз136854 2.0 1018689
18:00+16вюв489437 0.8 1020307
21:00+14юв49957 0.8 1022404
23 июня, ср
ср2300:00+13юв499390 0.0 1023475
03:00+13вюв499423 0.0 1022443
06:00+12юв399755 0.0 1023361
09:00+15вюв488589 0.0 1024530
12:00+20вюв45593 0.0 1022823
15:00+22юв44548 0.0 1019981
18:00+15юв38805 0.0 1020239
21:00+12юв36978 0.0 1022190
24 июня, чт
чт2400:00+11вюв239987 0.0 102293
03:00+11вюв2297100 0.0 102051
06:00+11всв1196100 0.0 102016
09:00+18св136637 0.0 1019276
12:00+26ссз343848 0.0 10161159
15:00+27ссз453732 0.0 10131590
18:00+18св23675 0.0 101649
21:00+16всв227619 0.0 101841